Terug naar catalogus

PEGASUS DEB

ActiefPO
NORAD 24529·DEBRIS·🇺🇸 United States

Gelanceerd May 19, 1994 vanaf Vandenberg Space Force Base

Loading…

Volgende Passages (komende 24 uur)

TLE

VersSource: Space-Track

Epoch: Sep 13, 2026, 20:44 UTC

1 24529U 94029WD  26256.86393416  .00001037  00000-0  94876-4 0  9996
2 24529  81.9752  30.4614 0105462 356.1912 129.6443 14.89808478265480

Volg PEGASUS DEB in realtime met AllMySat

Download on the App Store